Terminal Aerodrome Forecast
Issued by NWS

Home | Current Version | Previous Version | Text Only | Print | Product List | Glossary On
Versions: 1 2 3 4 5 6 7 8 9 10 11 12 13 14 15 16 17 18 19 20 21 22 23 24
000
FTUS44 KMAF 102300
TAFPEQ
TAF
KPEQ 102331Z 1100/1124 10015G22KT P6SM SCT250
     FM110700 10011KT P6SM FEW250
     FM111200 10009KT P6SM SCT250=

USA.gov is the U.S. government's official web portal to all federal, state and local government web resources and services.